Location: Unspecified
(0.0000°N, 0.0000°E)
Time: 23:58:39
(UTC+02:00)

ARIANE 5 R/B - Visible Passes

Search period start: 04 August 2015 00:00
Search period end: 14 August 2015 00:00
Orbit: 542 x 35586 km, 5.1° (Epoch: 03 August)

Date Brightness Start Highest point End Pass type
(mag) Time Alt. Az. Time Alt. Az. Time Alt. Az.
04 Aug 6.2 06:26:55 30° WSW 06:40:53 80° S 16:22:47 10° E visible
05 Aug 6.5 03:34:45 38° ESE 03:34:45 38° ESE 13:07:34 10° E visible
06 Aug 4.3 11:48:08 10° W 21:23:23 71° N 21:26:23 27° ENE visible
08 Aug 5.8 05:32:08 57° WSW 05:37:32 78° S 15:23:14 10° E visible
09 Aug 7.3 02:39:59 18° E 02:39:59 18° E 11:58:23 10° E visible
09 Aug 7.2 02:39:58 18° E 02:39:58 18° E 02:47:12 10° E visible
09 Aug 6.0 23:22:43 10° W 23:23:30 13° W 23:23:30 13° W visible
11 Aug 6.9 07:29:52 10° W 08:10:45 84° S 17:29:43 10° E visible
12 Aug 5.9 04:37:21 74° SSE 04:37:21 74° SSE 14:22:36 10° E visible
13 Aug 4.1 22:21:23 10° W 22:28:22 48° WNW 22:28:22 48° WNW visible
